www.pogodaiklimat.ru

Погода и климат >> Архив погоды >> Латвия >> Колка


ПОГОДА в Колке

  • Прогноз погоды в Колке
  • Монитор погоды в Колке

АРХИВ ПОГОДЫ в Колке

Время (UTC), дата Ветер
(напр.,м/с)
 
Видим.   Явления Облачность Т
(С)
Тd
(С)
f
(%)
Тe
(С)
Тes
(С)
Комфортность P
(гПа)
Po
(гПа)
Тmin
(С)
Tmax
(С)
R
(мм)
R24
(мм)
S
(см)
06 12.06 В 4 н/о н/о +15.6 +15 +15 1018.9 1018.4
09 12.06 СВ 3 н/о н/о +16.6 1019.3 1018.8
12 12.06 СВ 4 н/о н/о +17.5 +17 +17 1019.0 1018.5
15 12.06 В 4 н/о н/о +17.8 1017.5 1017.0
18 12.06 В 2 н/о н/о +16.0 +16 +16 1017.1 1016.6
21 12.06 В 4 н/о н/о +15.4 1017.0 1016.5
00 13.06 В 5 н/о н/о +15.2 +14 +14 1016.2 1015.7
03 13.06 В 5-6
{8}
н/о н/о +14.5 +14.0 97 +13 +13 1014.4 1013.9
06 13.06 В 7-10
{10}
н/о н/о +16.0 +15.0 94 +15 +15 1014.1 1013.6
09 13.06 ЮВ 4-6
{8}
н/о н/о +17.9 +15.3 85 +18 +18 1014.0 1013.5
12 13.06 ЮЗ 8-13
{18}
н/о н/о +18.0 +16.9 93 +17 +17 1014.6 1014.1 10
15 13.06 ЮЗ 1-2
{3}
н/о н/о +18.1 +17.9 99 +19 +19 1014.2 1013.5
18 13.06 ЮВ 3-4
{10}
н/о н/о +16.6 +15.7 94 +17 +17 1015.6 1015.1
21 13.06 З 2-4
{6}
4700 м н/о +15.6 +15.4 99 +15 +15 1015.8 1015.1
00 14.06 ЮЗ 2-3
{5}
3100 м н/о +16.0 +15.8 99 +16 +16 1016.6 1015.9
03 14.06 З 3-5
{7}
500 м н/о +13.6 +13.5 99 +12 +12 1016.8 1016.1
06 14.06 З 4-7
{7}
3900 м н/о +14.7 +14.6 99 +13 +13 1017.1 1016.4
09 14.06 З 4-6
{8}
6000 м н/о +14.4 +14.3 99 +13 +13 1019.4 1018.7
12 14.06 З 4-7
{9}
16 км н/о +15.6 +14.4 93 +15 +15 1020.8 1020.1
15 14.06 З 4-6
{8}
19 км н/о +14.2 +13.3 94 +13 +13 1020.6 1019.9
18 14.06 СЗ 2-4
{8}
15 км н/о +12.9 +12.4 97 +12 +12 1020.7 1020.0
21 14.06 СЗ 2-3
{5}
12 км н/о +12.3 +12.1 99 +11 +11 1021.6 1020.9
00 15.06 З 2-2
{3}
400 м н/о +11.7 +11.6 99 +10 +10 1021.5 1020.8
03 15.06 ЮЗ 1-1
{3}
400 м н/о +11.2 +11.1 99 +11 +11 1020.8 1020.1
06 15.06 В 1-2
{2}
20 км н/о +15.3 +13.3 88 +16 +16 1020.4 1019.7
09 15.06 З 3-4
{5}
20 км н/о +19.9 +14.4 71 +22 +22 комфорт 1020.7 1020.0
12 15.06 СЗ 4-5
{7}
19 км н/о +20.2 +13.8 67 +22 +22 комфорт 1020.0 1019.3
15 15.06 З 3-5
{6}
20 км н/о +21.3 +13.4 61 +24 +24 комфорт 1019.4 1018.7
18 15.06 СЗ 2-3
{4}
19 км н/о +18.1 +10.1 60 +19 +19 1018.4 1017.9
21 15.06 штиль 0
{3}
18 км н/о +11.7 +10.5 92 +11 +11 1017.4 1016.7
00 16.06 ЮВ 2-2
{3}
20 км н/о +11.1 +10.7 97 +10 +10 1016.9 1016.2
03 16.06 ЮВ 2-2
{3}
20 км н/о +15.5 +14.9 96 +15 +15 1016.7 1016.0
06 16.06 ЮВ 2-2
{5}
20 км н/о +17.2 +15.3 89 +18 +18 1016.5 1015.8
09 16.06 В 1-3
{5}
20 км н/о +18.4 +15.8 85 +20 +20 1016.1 1015.4
12 16.06 ЮВ 2-2
{4}
20 км н/о +18.3 +15.5 84 +19 +19 1016.1 1015.4
15 16.06 СВ 2-3
{5}
20 км н/о +18.6 +14.0 75 +20 +20 1015.3 1014.6
18 16.06 СВ 1-2
{5}
20 км н/о +17.5 +13.9 79 +19 +19 1015.3 1014.6
21 16.06 Ю 1-1
{3}
20 км н/о +16.2 +12.5 79 +17 +17 1015.1 1014.4
00 17.06 СЗ 2-3
{3}
20 км н/о +16.3 +13.9 86 +17 +17 1015.1 1014.6
03 17.06 СЗ 2-3
{3}
20 км н/о +16.4 +14.7 90 +16 +16 1015.3 1014.6
06 17.06 З 2-3
{4}
19 км н/о +17.1 +15.5 90 +17 +17 1016.1 1015.4
09 17.06 СЗ 4-5
{6}
20 км н/о +21.4 +9.5 47 +23 +23 комфорт 1016.9 1016.4
12 17.06 З 8-9
{10}
н/о н/о +18.4 +13.3 72 +17 +17 1017.7 1017.2
15 17.06 З 4-7
{10}
20 км н/о +18.2 +12.3 68 +18 +18 1018.2 1017.7
18 17.06 З 3-6
{10}
20 км н/о +17.5 +10.5 63 +18 +18 1017.7 1017.0
21 17.06 ЮЗ 5-7
{6}
20 км н/о +15.0 +12.2 83 +14 +14 1017.8 1017.1
00 18.06 З 3-5
{7}
20 км н/о +14.4 +12.9 91 +13 +13 1018.3 1017.6
03 18.06 З 3-4
{5}
20 км н/о +15.7 +13.3 86 +15 +15 1018.9 1018.2
06 18.06 З 6-8
{8}
20 км н/о +18.6 +12.9 69 +19 +19 1019.7 1019.0
09 18.06 З 6-8
{9}
20 км н/о +19.9 +11.3 58 +21 +21 комфорт 1020.4 1019.7
12 18.06 З 4-6
{10}
20 км н/о +20.9 +11.7 56 +23 +23 комфорт 1020.6 1019.9
15 18.06 З 5-7
{8}
20 км н/о +20.9 +12.0 57 +23 +23 комфорт 1020.0 1019.3
18 18.06 З 1-3
{7}
20 км н/о +18.4 +12.3 68 +20 +20 1019.0 1018.3
21 18.06 Ю 1-2
{3}
19 км н/о +12.5 +11.6 94 +12 +12 1018.8 1018.1
00 19.06 Ю 2-2
{3}
10 км н/о +11.5 +11.3 99 +10 +10 1018.4 1017.7
03 19.06 Ю 1-2
{3}
20 км н/о +12.6 +12.5 99 +12 +12 1018.1 1017.4

 

Местоположение метеостанции Колка (Латвия): широта 57.75 долгота 22.60 высота над уровнем моря 5 м.

В архиве по умолчанию представлена погода в Колке за последнюю неделю. Архивные данные за месяц целиком и за предыдущие месяцы, начиная с января 2011 года, Вы можете получить, выбрав интересующий диапазон дат из раскрывающегося списка и нажав кнопку "Ввод!".


*Определитесь, кто Вы:
робот инопланетянин человек

Внимание! Время в таблицах - всемирное. Для получения местного времени необходимо прибавить поправку, которая равна 2 ч.

Смотрите также архив погоды в соседних городах и на ближайших метеорологических станциях:

Погода в Сырве (Эстония) (38 км)
Погода на Рухну (Эстония) (40 км)
Погода в Мерсрагсе (Латвия) (54 км)
Погода в Стенде (Латвия) (63 км)
Погода в Вентспилсе (Латвия) (75 км)
Погода в Вилсанди (Эстония) (84 км)
Погода на Кихну (Эстония) (90 км)
Погода в Айнажи (Латвия) (106 км)
Погода в Виртсу (Эстония) (106 км)
Погода в Скульте (Латвия) (119 км)

Пояснения к столбцам:

Ветер - указаны скорость ветра в м/с - средняя за 10 мин, порывы в срок и между сроками (в фигурных скобках) и направление, откуда дует ветер: С - северный, СВ - северо-восточный, В - восточный, ЮВ - юго-восточный, Ю - южный, ЮЗ - юго-западный, З - западный, СЗ - северо-западный.
Видимость - горизонтальная дальность видимости в метрах или километрах. При видимости от 1 до 10 км при отсутствии осадков обычно наблюдается дымка, при ухудшении видимости до 1 км и менее - туман. В сухую погоду видимость может ухудшаться дымом, пылью или мглою.
Явления - указаны атмосферные явления, наблюдавшиеся в срок или в последний час перед сроком; фигурными скобками обозначены явления, наблюдавшиеся между сроками (за 1-3 часа до срока); квадратными скобками обозначены град или гололедные отложения с указанием их диаметра в мм.
Облачность - указаны через наклонную черту общая и нижняя облачность в баллах и высота нижней границы облаков в метрах; квадратными скобками обозначены формы облаков: Ci - перистые, Cs - перисто-слоистые, Cc - перисто-кучевые, Ac - высококучевые, As - высокослоистые, Sc - слоисто-кучевые, Ns - слоисто-дождевые, Cu - кучевые, Cb - кучево-дождевые. Подробнее классификацию облаков см. в Атласе облаков (PDF).
T - Температура воздуха - температура, измеренная на высоте 2 м над землей.
Td - Температура точки росы - температура, при понижении до которой содержащийся в воздухе водяной пар достигнет насыщения.
f - Относительная влажность воздуха - влажноcть воздуха, измеренная на высоте 2 м над землей.
Te - Эффективная температура - температура, которую ощущает одетый по сезону человек в тени. Характеристика душности погоды. При расчете учитывается влияние влажности воздуха и скорости ветра на теплоощущения человека.
Tes - Эффективная температура на солнце - температура, которую ощущает человек, с поправкой на солнечный нагрев. Характеристика знойности погоды. Зависит от высоты солнца над горизонтом, облачности и скорости ветра. Ночью, в пасмурную погоду, а также при ветре 12 м/с и более поправка равна нулю.
P - Атмосферное давление - приведенное к уровню моря атмосферное давление.
Po - Атмосферное давление - измеренное на уровне метеостанции атмосферное давление.
Tmin - Минимальная температура - минимум температуры воздуха на высоте 2 м над землей.
Tmax - Максимальная температура - максимум температуры воздуха на высоте 2 м над землей.
R - Количество осадков - Количество выпавших осадков за период времени, мм. При наведении курсора мыши на число - период времени, за который выпало указанное количество осадков.
R24 - Количество осадков - Количество выпавших осадков за 24 часа, мм.
S - Снежный покров - Высота снежного покрова, см. При наведении курсора мыши на число - состояние снежного покрова и степень покрытия местности в баллах.